Date String (YYYY-MM-DD hh:mm:ss) UTC,Instrument flags,Ambient pressure (hPa),Sample flow (lpm),Bypass flow (lpm),Sample temperature (°C),Ambient temperature (°C),ASC tube jacket temperature (°C),LED temperature (°C),Box temperature (°C),Sample RH (%),Span deviation,Mass concentration (μg/m³),Mass concentration (μg/m³),Mass concentration (μg/m³)
DateTimeUTC,F1_M11,P_M11,Q1_M11,Q2_M11,T1_M11,T2_M11,T3_M11,T4_M11,T5_M11,U1_M11,ZSPAN_M11,X0_M11,X2_M11,X1_M11
2022-09-01 12:00:00,,0829.5,5.00,0.00,30.3,29.1,00.0,39.2,32.1,19.2,0000.0,0016.88,0006.03,0004.86
2022-09-01 12:01:00,,0829.5,5.00,0.00,30.3,29.1,00.0,39.2,32.1,19.0,0000.0,0017.76,0006.06,0004.86
2022-09-01 12:02:00,,0829.5,5.00,0.00,30.3,29.1,00.0,39.2,32.1,18.8,0000.0,0016.99,0006.02,0004.85
2022-09-01 12:03:00,,0829.5,5.01,0.00,30.4,29.1,00.0,39.2,32.1,18.8,0000.0,0016.63,0005.99,0004.84
2022-09-01 12:04:00,,0829.4,5.00,0.00,30.4,29.1,00.0,39.2,32.1,18.9,0000.0,0016.69,0005.96,0004.82
2022-09-01 12:05:00,,0829.5,4.98,0.00,30.4,29.1,00.0,39.2,32.1,19.3,0000.0,0017.58,0006.00,0004.83
2022-09-01 12:06:00,,0829.5,5.00,0.00,30.4,29.1,00.0,39.2,32.1,19.4,0000.0,0018.09,0006.02,0004.83
2022-09-01 12:07:00,,0829.6,5.00,0.00,30.4,29.2,00.0,39.2,32.1,19.3,0000.0,0017.83,0006.07,0004.84
2022-09-01 12:08:00,,0829.5,5.01,0.00,30.4,29.2,00.0,39.2,32.2,19.2,0000.0,0018.13,0006.09,0004.83
2022-09-01 12:09:00,,0829.5,5.00,0.00,30.4,29.2,00.0,39.2,32.2,19.2,0000.0,0016.78,0006.09,0004.84
2022-09-01 12:10:00,,0829.5,5.01,0.00,30.4,29.3,00.0,39.2,32.2,19.2,0000.0,0015.13,0006.06,0004.83
2022-09-01 12:11:00,,0829.5,5.00,0.00,30.5,29.3,00.0,39.3,32.2,19.2,0000.0,0015.46,0006.07,0004.83
2022-09-01 12:12:00,,0829.5,4.99,0.00,30.5,29.3,00.0,39.3,32.2,19.2,0000.0,0014.60,0006.07,0004.83
2022-09-01 12:13:00,,0829.5,5.00,0.00,30.5,29.3,00.0,39.3,32.3,19.2,0000.0,0014.28,0006.03,0004.83
2022-09-01 12:14:00,,0829.5,5.00,0.00,30.5,29.4,00.0,39.3,32.3,19.2,0000.0,0014.66,0006.04,0004.84
2022-09-01 12:15:00,,0829.5,5.00,0.00,30.5,29.4,00.0,39.3,32.3,19.2,0000.0,0014.86,0006.07,0004.86
2022-09-01 12:16:00,,0829.5,5.00,0.00,30.5,29.4,00.0,39.3,32.3,19.1,0000.0,0014.45,0006.09,0004.87
2022-09-01 12:17:00,,0829.5,5.01,0.00,30.5,29.4,00.0,39.3,32.3,19.1,0000.0,0013.78,0006.06,0004.87
2022-09-01 12:18:00,,0829.5,5.00,0.00,30.6,29.4,00.0,39.3,32.3,19.0,0000.0,0013.58,0006.01,0004.87
2022-09-01 12:19:00,,0829.5,4.98,0.00,30.6,29.4,00.0,39.3,32.3,18.9,0000.0,0012.95,0006.02,0004.88
2022-09-01 12:20:00,,0829.5,5.00,0.00,30.6,29.4,00.0,39.4,32.4,18.9,0000.0,0013.37,0006.10,0004.89
2022-09-01 12:21:00,,0829.5,5.01,0.00,30.6,29.4,00.0,39.4,32.4,18.9,0000.0,0013.86,0006.13,0004.90
2022-09-01 12:22:00,,0829.5,5.01,0.00,30.6,29.4,00.0,39.4,32.4,18.9,0000.0,0013.82,0006.12,0004.92
2022-09-01 12:23:00,,0829.5,5.00,0.00,30.6,29.4,00.0,39.4,32.4,18.9,0000.0,0014.29,0006.09,0004.92
2022-09-01 12:24:00,,0829.5,5.00,0.00,30.6,29.4,00.0,39.4,32.4,18.8,0000.0,0014.48,0006.11,0004.93
2022-09-01 12:25:00,,0829.5,5.00,0.00,30.6,29.3,00.0,39.4,32.4,18.8,0000.0,0013.92,0006.14,0004.94
2022-09-01 12:26:00,,0829.5,4.98,0.00,30.6,27.9,00.0,39.4,32.3,18.7,0000.0,0013.45,0006.13,0004.95
2022-09-01 12:27:00,,0829.5,5.01,0.00,30.5,26.5,00.0,39.3,32.1,18.7,0000.0,0013.42,0006.12,0004.94
2022-09-01 12:28:00,,0829.5,5.00,0.00,30.4,26.2,00.0,39.2,31.9,18.8,0000.0,0013.37,0006.12,0004.94
2022-09-01 12:29:00,,0829.5,4.99,0.00,30.3,26.4,00.0,39.2,31.7,19.1,0000.0,0013.46,0006.17,0004.93
2022-09-01 12:30:00,,0829.5,5.02,0.00,30.2,26.9,00.0,39.1,31.6,19.2,0000.0,0013.42,0006.15,0004.93
2022-09-01 12:31:00,,0829.5,5.00,0.00,30.1,27.3,00.0,39.0,31.6,19.3,0000.0,0013.72,0006.08,0004.93
2022-09-01 12:32:00,,0829.5,5.00,0.00,30.1,27.6,00.0,39.0,31.7,19.4,0000.0,0013.35,0006.05,0004.93
2022-09-01 12:33:00,,0829.5,4.99,0.00,30.0,27.8,00.0,39.0,31.7,19.4,0000.0,0013.10,0006.07,0004.92
2022-09-01 12:34:00,,0829.5,5.01,0.00,30.0,28.0,00.0,39.0,31.7,19.5,0000.0,0014.19,0006.13,0004.92
2022-09-01 12:35:00,,0829.5,4.99,0.00,30.0,28.2,00.0,38.9,31.7,19.4,0000.0,0015.15,0006.17,0004.91
2022-09-01 12:36:00,,0829.5,5.00,0.00,30.0,28.3,00.0,38.9,31.7,19.5,0000.0,0015.42,0006.15,0004.89
2022-09-01 12:37:00,,0829.5,5.00,0.00,30.0,28.4,00.0,38.9,31.8,19.4,0000.0,0015.34,0006.14,0004.87
2022-09-01 12:38:00,,0829.5,5.00,0.00,30.0,28.5,00.0,38.9,31.7,19.4,0000.0,0015.44,0006.18,0004.87
2022-09-01 12:39:00,,0829.5,5.01,0.00,30.0,28.6,00.0,38.9,31.7,19.4,0000.0,0015.55,0006.19,0004.86
2022-09-01 12:40:00,,0829.5,5.00,0.00,30.0,28.6,00.0,38.9,31.8,19.4,0000.0,0015.75,0006.18,0004.85
2022-09-01 12:41:00,,0829.5,4.98,0.00,30.0,28.7,00.0,38.9,31.8,19.3,0000.0,0018.51,0006.23,0004.83
2022-09-01 12:42:00,,0829.5,4.99,0.00,30.0,28.7,00.0,38.9,31.9,19.4,0000.0,0018.56,0006.24,0004.82
2022-09-01 12:43:00,,0829.5,5.00,0.00,30.1,28.8,00.0,38.9,31.9,19.4,0000.0,0018.67,0006.26,0004.81
2022-09-01 12:44:00,,0829.5,5.00,0.00,30.1,28.8,00.0,38.9,31.9,19.4,0000.0,0018.66,0006.26,0004.80
2022-09-01 12:45:00,,0829.5,5.00,0.00,30.1,28.9,00.0,38.9,31.9,19.4,0000.0,0018.42,0006.21,0004.78
2022-09-01 12:46:00,,0829.5,5.00,0.00,30.1,28.9,00.0,38.9,31.9,19.3,0000.0,0017.74,0006.17,0004.77
2022-09-01 12:47:00,,0829.5,5.00,0.00,30.1,28.9,00.0,38.9,32.0,19.3,0000.0,0018.41,0006.13,0004.76
2022-09-01 12:48:00,,0829.5,4.99,0.00,30.1,29.0,00.0,38.9,32.0,19.3,0000.0,0019.02,0006.14,0004.76
2022-09-01 12:49:00,,0829.5,5.00,0.00,30.2,29.0,00.0,38.9,32.0,19.3,0000.0,0019.24,0006.11,0004.76
2022-09-01 12:50:00,,0829.5,5.00,0.00,30.2,29.0,00.0,39.0,32.0,19.3,0000.0,0019.10,0006.06,0004.77
2022-09-01 12:51:00,,0829.5,5.00,0.00,30.2,29.0,00.0,39.0,32.0,19.2,0000.0,0019.74,0006.03,0004.77
2022-09-01 12:52:00,,0829.5,5.00,0.00,30.2,29.1,00.0,39.0,32.0,19.1,0000.0,0017.34,0005.98,0004.78
2022-09-01 12:53:00,,0829.5,4.99,0.00,30.2,29.1,00.0,39.0,32.0,19.1,0000.0,0016.18,0005.98,0004.78
2022-09-01 12:54:00,,0829.5,4.99,0.00,30.3,29.1,00.0,39.0,32.1,19.1,0000.0,0016.27,0005.99,0004.78
2022-09-01 12:55:00,,0829.5,5.00,0.00,30.3,29.1,00.0,39.0,32.1,19.1,0000.0,0016.70,0005.96,0004.77
2022-09-01 12:56:00,,0829.5,5.01,0.00,30.3,29.2,00.0,39.0,32.1,18.9,0000.0,0015.92,0005.93,0004.78
2022-09-01 12:57:00,,0829.6,5.01,0.00,30.3,29.2,00.0,39.1,32.1,18.7,0000.0,0014.65,0005.89,0004.78
2022-09-01 12:58:00,,0829.5,5.00,0.00,30.3,29.2,00.0,39.1,32.1,18.6,0000.0,0014.38,0005.92,0004.77
2022-09-01 12:59:00,,0829.5,5.01,0.00,30.3,29.2,00.0,39.1,32.1,18.7,0000.0,0013.75,0005.92,0004.76
